Location: Isles
(48.9125°N, 2.8272°E)
Time: 16:26:38
(UTC+00:00)

SJ-6B - Pass Details

Date: 03 February 2023
Orbit: 501 x 570 km, 97.5° (Epoch: 31 March)

Event Time Altitude Azimuth Distance (km) Brightness Sun altitude
Exits shadow 19:23:21 29° 345° (NNW) 1,024 4.3 -25.5°
Drops below altitude 10° 19:25:25 10° 346° (NNW) 1,851 5.7 -25.9°
Sets 19:27:35 0° 347° (NNW) 2,763 6.6 -26.2°
